GJOHN EGFH-EGFF

Flight info

Callsign GJOHN
Flight time 0h 24m
Altitude 1500
Route SWANSEA AIRPORT MUMBLES SWANSEA BRITON FERRY PORT TALBOT PYLE M4 JUNC 36 ST HILARY TV MAST CARDIFF
Aircraft C182/L-VGDW/C

Departure

Time 2026-05-04 19:01
Airport Swansea Airport (EGFH)

Arrival

Time 2026-05-04 19:25
Airport Cardiff International Airport (EGFF)
Time Latitude Longitude Altitude Speed Heading
2026-05-04 18:51 51.60141 -4.06840 303 ft 0 kts 183°
2026-05-04 18:52 51.60140 -4.06840 303 ft 0 kts 183°
2026-05-04 18:52 51.60137 -4.06841 303 ft 3 kts 195°
2026-05-04 18:53 51.60148 -4.06877 303 ft 3 kts 302°
2026-05-04 18:53 51.60186 -4.06922 303 ft 12 kts 351°
2026-05-04 18:53 51.60279 -4.06915 303 ft 13 kts 18°
2026-05-04 18:53 51.60355 -4.06839 303 ft 13 kts 36°
2026-05-04 18:54 51.60386 -4.06804 303 ft 0 kts 36°
2026-05-04 18:56 51.60386 -4.06803 303 ft 0 kts 36°
2026-05-04 18:57 51.60408 -4.06780 303 ft 10 kts 32°
2026-05-04 18:57 51.60467 -4.06775 303 ft 9 kts 330°
2026-05-04 18:57 51.60533 -4.06767 303 ft 15 kts 39°
2026-05-04 18:58 51.60587 -4.06702 303 ft 16 kts 36°
2026-05-04 18:58 51.60682 -4.06598 303 ft 18 kts 33°
2026-05-04 18:58 51.60747 -4.06521 303 ft 17 kts 36°
2026-05-04 18:58 51.60827 -4.06416 303 ft 14 kts 41°
2026-05-04 18:59 51.60917 -4.06298 303 ft 18 kts 37°
2026-05-04 18:59 51.60974 -4.06238 303 ft 5 kts 303°
2026-05-04 18:59 51.60932 -4.06302 303 ft 16 kts 215°
2026-05-04 18:59 51.60676 -4.06606 310 ft 71 kts 211°
2026-05-04 19:00 51.60200 -4.07151 422 ft 95 kts 219°
2026-05-04 19:00 51.59661 -4.07844 573 ft 99 kts 224°
2026-05-04 19:00 51.59292 -4.08697 724 ft 90 kts 258°
2026-05-04 19:00 51.59267 -4.09671 846 ft 86 kts 285°
2026-05-04 19:01 51.59511 -4.10533 927 ft 86 kts 313°
2026-05-04 19:01 51.59991 -4.10980 1035 ft 82 kts 349°
2026-05-04 19:01 51.60737 -4.10696 1102 ft 88 kts 33°
2026-05-04 19:01 51.60989 -4.10162 1137 ft 90 kts 60°
2026-05-04 19:02 51.60957 -4.09170 1188 ft 95 kts 110°
2026-05-04 19:02 51.60424 -4.08495 1239 ft 102 kts 152°
2026-05-04 19:02 51.59845 -4.07884 1298 ft 95 kts 131°
2026-05-04 19:02 51.59408 -4.07155 1358 ft 87 kts 125°
2026-05-04 19:03 51.59016 -4.06415 1427 ft 88 kts 121°
2026-05-04 19:03 51.58680 -4.05585 1487 ft 91 kts 109°
2026-05-04 19:03 51.58458 -4.04576 1508 ft 102 kts 101°
2026-05-04 19:03 51.58288 -4.03511 1510 ft 110 kts 99°
2026-05-04 19:04 51.58108 -4.02266 1508 ft 116 kts 98°
2026-05-04 19:04 51.58018 -4.00999 1501 ft 113 kts 76°
2026-05-04 19:04 51.58436 -3.99991 1503 ft 109 kts 40°
2026-05-04 19:04 51.59012 -3.99195 1508 ft 110 kts 39°
2026-05-04 19:05 51.59584 -3.98380 1507 ft 110 kts 40°
2026-05-04 19:05 51.60156 -3.97535 1506 ft 111 kts 41°
2026-05-04 19:05 51.60719 -3.96692 1505 ft 111 kts 41°
2026-05-04 19:05 51.61280 -3.95845 1503 ft 111 kts 41°
2026-05-04 19:06 51.61844 -3.94992 1502 ft 111 kts 41°
2026-05-04 19:06 51.62314 -3.94017 1496 ft 114 kts 65°
2026-05-04 19:06 51.62483 -3.92769 1501 ft 115 kts 77°
2026-05-04 19:06 51.62589 -3.91503 1503 ft 114 kts 79°
2026-05-04 19:07 51.62685 -3.90248 1503 ft 113 kts 79°
2026-05-04 19:07 51.62780 -3.88995 1504 ft 114 kts 79°
2026-05-04 19:07 51.62876 -3.87732 1504 ft 114 kts 79°
2026-05-04 19:07 51.62972 -3.86451 1504 ft 118 kts 79°
2026-05-04 19:08 51.63072 -3.85120 1503 ft 121 kts 80°
2026-05-04 19:08 51.63163 -3.83765 1503 ft 123 kts 84°
2026-05-04 19:08 51.62862 -3.82468 1496 ft 130 kts 127°
2026-05-04 19:08 51.62179 -3.81521 1503 ft 128 kts 140°
2026-05-04 19:09 51.61468 -3.80658 1507 ft 126 kts 139°
2026-05-04 19:09 51.60788 -3.79792 1508 ft 124 kts 137°
2026-05-04 19:09 51.60128 -3.78918 1508 ft 122 kts 137°
2026-05-04 19:09 51.59470 -3.78055 1504 ft 123 kts 139°
2026-05-04 19:10 51.58783 -3.77243 1502 ft 123 kts 141°
2026-05-04 19:10 51.58085 -3.76450 1501 ft 123 kts 141°
2026-05-04 19:10 51.57386 -3.75666 1501 ft 123 kts 142°
2026-05-04 19:10 51.56689 -3.74886 1501 ft 122 kts 142°
2026-05-04 19:11 51.55992 -3.74108 1501 ft 122 kts 142°
2026-05-04 19:11 51.55296 -3.73332 1502 ft 122 kts 142°
2026-05-04 19:11 51.54600 -3.72557 1503 ft 122 kts 142°
2026-05-04 19:11 51.53907 -3.71785 1503 ft 122 kts 142°
2026-05-04 19:12 51.53212 -3.71012 1503 ft 121 kts 142°
2026-05-04 19:12 51.52229 -3.69021 1495 ft 115 kts 87°
2026-05-04 19:12 51.52347 -3.67773 1505 ft 113 kts 77°
2026-05-04 19:13 51.52487 -3.66530 1507 ft 113 kts 78°
2026-05-04 19:13 51.52603 -3.65282 1507 ft 113 kts 80°
2026-05-04 19:13 51.52707 -3.64032 1509 ft 113 kts 80°
2026-05-04 19:13 51.52806 -3.62783 1503 ft 113 kts 81°
2026-05-04 19:14 51.52903 -3.61532 1502 ft 113 kts 81°
2026-05-04 19:14 51.53000 -3.60281 1501 ft 113 kts 81°
2026-05-04 19:14 51.53096 -3.59025 1501 ft 114 kts 81°
2026-05-04 19:14 51.53167 -3.57763 1498 ft 115 kts 90°
2026-05-04 19:15 51.52934 -3.56538 1499 ft 113 kts 110°
2026-05-04 19:15 51.52634 -3.55519 1486 ft 89 kts 112°
2026-05-04 19:15 51.52382 -3.54708 1488 ft 75 kts 110°
2026-05-04 19:15 51.52160 -3.53987 1492 ft 75 kts 110°
2026-05-04 19:16 51.51928 -3.53251 1504 ft 71 kts 110°
2026-05-04 19:16 51.51716 -3.52583 1510 ft 68 kts 110°
2026-05-04 19:16 51.51502 -3.51908 1499 ft 67 kts 110°
2026-05-04 19:16 51.51292 -3.51248 1500 ft 69 kts 109°
2026-05-04 19:17 51.51063 -3.50517 1508 ft 77 kts 111°
2026-05-04 19:17 51.50810 -3.49725 1509 ft 83 kts 112°
2026-05-04 19:17 51.50544 -3.48891 1501 ft 84 kts 112°
2026-05-04 19:17 51.50281 -3.48069 1497 ft 82 kts 112°
2026-05-04 19:18 51.50023 -3.47260 1496 ft 81 kts 112°
2026-05-04 19:18 51.49767 -3.46458 1496 ft 80 kts 112°
2026-05-04 19:18 51.49514 -3.45664 1496 ft 80 kts 112°
2026-05-04 19:18 51.49248 -3.44882 1497 ft 80 kts 114°
2026-05-04 19:19 51.48975 -3.44105 1496 ft 79 kts 115°
2026-05-04 19:19 51.48706 -3.43345 1498 ft 79 kts 115°
2026-05-04 19:19 51.48430 -3.42567 1501 ft 81 kts 115°
2026-05-04 19:19 51.48150 -3.41779 1503 ft 82 kts 115°
2026-05-04 19:20 51.47865 -3.40978 1504 ft 84 kts 115°
2026-05-04 19:20 51.47576 -3.40165 1503 ft 83 kts 115°
2026-05-04 19:20 51.47298 -3.39388 1497 ft 79 kts 115°
2026-05-04 19:20 51.47025 -3.38622 1498 ft 80 kts 115°
2026-05-04 19:21 51.46647 -3.37965 1493 ft 81 kts 141°
2026-05-04 19:21 51.46174 -3.37506 1471 ft 80 kts 144°
2026-05-04 19:21 51.45695 -3.37195 1479 ft 72 kts 164°
2026-05-04 19:21 51.45194 -3.37276 1450 ft 75 kts 191°
2026-05-04 19:22 51.44692 -3.37536 1411 ft 77 kts 197°
2026-05-04 19:22 51.44184 -3.37816 1378 ft 76 kts 198°
2026-05-04 19:22 51.43681 -3.38130 1284 ft 79 kts 197°
2026-05-04 19:22 51.43166 -3.38419 1193 ft 78 kts 195°
2026-05-04 19:23 51.42656 -3.38711 1105 ft 76 kts 198°
2026-05-04 19:23 51.42163 -3.39011 1026 ft 76 kts 197°
2026-05-04 19:23 51.41647 -3.39239 894 ft 78 kts 179°
2026-05-04 19:23 51.41168 -3.38946 749 ft 74 kts 133°
2026-05-04 19:24 51.40895 -3.38281 625 ft 68 kts 113°
2026-05-04 19:24 51.40694 -3.37635 553 ft 63 kts 111°
2026-05-04 19:24 51.40499 -3.36998 458 ft 65 kts 112°
2026-05-04 19:24 51.40297 -3.36351 365 ft 64 kts 113°
2026-05-04 19:25 51.40095 -3.35724 279 ft 64 kts 113°
2026-05-04 19:25 51.39901 -3.35106 225 ft 56 kts 114°
2026-05-04 19:25 51.39754 -3.34637 224 ft 50 kts 116°
2026-05-04 19:25 51.39613 -3.34185 224 ft 30 kts 123°
2026-05-04 19:26 51.39551 -3.34211 224 ft 12 kts 259°
2026-05-04 19:26 51.39513 -3.34302 224 ft 15 kts 227°
2026-05-04 19:26 51.39492 -3.34372 224 ft 0 kts 335°